Location: Buckhorn Peak
(37.6641°N, 120.1241°W)
Time: 14:50:06
(UTC+00:00)

BlueWalker 3 - Visible Passes

Search period start: 15 December 2025 00:00
Search period end: 25 December 2025 00:00
Orbit: 454 x 462 km, 53.2° (Epoch: 14 December)

Date Brightness Start Highest point End Pass type
(mag) Time Alt. Az. Time Alt. Az. Time Alt. Az.
17 Dec 5.4 14:07:41 10° SE 14:08:51 11° SE 14:10:02 10° ESE visible
19 Dec 2.2 14:32:31 10° SW 14:36:03 65° SE 14:39:37 10° NE visible
20 Dec 2.8 13:57:42 10° SSW 14:01:09 47° SE 14:04:36 10° ENE visible
21 Dec 3.4 13:22:59 10° SSW 13:26:14 34° SE 13:29:32 10° ENE visible
22 Dec 3.8 12:51:14 25° SE 12:51:21 25° SE 12:54:22 10° ENE visible
22 Dec 2.5 14:25:31 10° W 14:28:45 32° NW 14:32:03 10° NNE visible
23 Dec 5.2 12:18:54 11° E 12:18:54 11° E 12:19:04 10° E visible
23 Dec 2.1 13:52:44 32° W 13:53:45 41° NW 13:57:11 10° NE visible
24 Dec 2.9 13:20:00 34° NNE 13:20:00 34° NNE 13:22:17 10° NE visible
